Location: Partizánske
(48.6285°N, 18.3769°E)
Time: 17:32:48
(UTC+02:00)

Vanguard 2 - All Passes

Search period start: 29 June 2022 00:00
Search period end: 09 July 2022 00:00
Orbit: 552 x 2934 km, 32.9° (Epoch: 28 June)

Date Brightness Start Highest point End Pass type
(mag) Time Alt. Az. Time Alt. Az. Time Alt. Az.
29 Jun - 19:38:41 10° SSW 19:41:53 13° S 19:44:36 10° SE daylight
29 Jun - 21:46:38 10° SW 21:49:28 14° S 21:51:54 10° SSE visible
30 Jun - 19:54:35 10° SSW 19:58:56 16° S 20:02:23 10° SE daylight
30 Jun - 22:03:38 10° SW 22:06:24 14° SSW 22:08:46 10° SSE visible
01 Jul - 18:03:49 10° S 18:07:51 13° SSE 18:11:15 10° SE daylight
01 Jul - 20:10:58 10° SW 20:15:57 18° S 20:19:45 10° SE daylight
01 Jul - 22:20:57 10° SW 22:23:17 13° SSW 22:25:21 10° S visible
02 Jul - 18:19:04 10° SSW 18:24:55 17° SSE 18:29:27 10° SE daylight
02 Jul - 20:27:40 10° SW 20:32:56 19° S 20:36:55 10° SE daylight
02 Jul - 22:38:50 10° SW 22:40:07 11° SSW 22:41:20 10° S visible
03 Jul - 16:29:56 10° S 16:33:21 12° SSE 16:36:24 10° SE daylight
03 Jul - 18:35:02 10° SSW 18:41:59 20° S 18:47:05 10° SE daylight
03 Jul - 20:44:33 10° SW 20:49:54 20° S 20:53:53 10° SE daylight
04 Jul - 16:43:51 10° S 16:50:24 16° SSE 16:55:39 10° SE daylight
04 Jul - 18:51:23 10° SW 18:59:02 23° S 19:04:26 10° SE daylight
04 Jul - 21:01:39 10° WSW 21:06:48 19° SSW 21:10:43 10° SSE daylight
05 Jul - 16:59:07 10° SSW 17:07:28 20° SSE 17:13:44 10° ESE daylight
05 Jul - 19:08:01 10° SW 19:16:03 25° S 19:21:37 10° SE daylight
05 Jul - 21:18:55 10° WSW 21:23:39 17° SSW 21:27:20 10° SSE daylight
06 Jul - 15:09:59 10° S 15:15:26 13° SSE 15:20:10 10° SE daylight
06 Jul - 17:14:59 10° SSW 17:24:31 24° SSE 17:31:21 10° ESE daylight
06 Jul - 19:24:50 10° WSW 19:33:03 26° S 19:38:40 10° SE daylight
06 Jul - 21:36:28 10° WSW 21:40:26 15° SSW 21:43:40 10° S visible
07 Jul - 15:23:55 10° S 15:32:25 18° SSE 15:39:17 10° ESE daylight
07 Jul - 17:31:14 10° SW 17:41:34 28° S 17:48:44 10° ESE daylight
07 Jul - 19:41:50 10° WSW 19:49:59 26° SSW 19:55:34 10° SE daylight
07 Jul - 21:54:28 10° SW 21:57:08 12° SSW 21:59:28 10° S visible
08 Jul - 15:39:01 10° SSW 15:49:25 22° SSE 15:57:24 10° ESE daylight
08 Jul - 17:47:46 10° SW 17:58:36 30° S 18:05:56 10° ESE daylight
08 Jul - 19:58:58 10° WSW 20:06:52 25° SSW 20:12:21 10° SE daylight
